DW1521 Weather Reports


Display with metric or nautical units.
time (UTC)temp
F
wind
direction
speed
MPH
gust
MPH
rain 1hr
in
rain 24hr
in
rain mn
in
humidity
%
barometer
mb
20171024112113 49 335 0.0 2.0 0.00 0.90 0.38 97 1004.0
20171024110114 49 330 0.0 2.0 0.00 0.90 0.38 98 1004.0
20171024105113 49 340 0.0 2.0 0.00 0.90 0.38 98 1004.0
20171024104114 49 284 0.0 2.0 0.00 0.90 0.38 98 1004.0
20171024103114 49 315 0.0 5.0 0.00 0.90 0.38 98 1004.0
20171024102114 49 299 0.0 6.0 0.00 0.90 0.38 99 1004.0
20171024095113 49 326 2.0 6.0 0.00 0.90 0.38 100 1003.0
20171024093114 47 356 0.0 2.0 0.00 0.90 0.38 100 1003.6
20171024092113 46 320 0.0 3.0 0.00 0.90 0.38 100 1003.0
20171024091114 46 0 1.0 6.0 0.00 0.90 0.38 100 1003.0
20171024090114 46 319 0.0 2.0 0.00 0.90 0.38 100 1003.0
20171024085114 46 340 0.0 8.0 0.05 0.90 0.38 100 1003.0
20171024084114 46 330 2.0 8.0 0.05 0.90 0.38 100 1003.0
20171024083113 46 338 0.0 3.0 0.05 0.90 0.38 100 1003.0
20171024082113 45 352 0.0 2.0 0.05 0.90 0.38 99 1003.0
20171024075114 44 357 2.0 8.0 0.00 0.85 0.33 99 1003.0
20171024074114 44 333 3.0 9.0 0.00 0.85 0.33 99 1002.0
20171024073113 44 333 2.0 6.0 0.00 0.85 0.33 99 1002.0
20171024072113 44 353 2.0 8.0 0.00 0.85 0.33 99 1002.0
20171024071114 44 328 4.0 8.0 0.00 0.85 0.33 99 1002.0
20171024070114 44 321 2.0 9.0 0.00 0.85 0.33 99 1002.0
20171024065114 44 320 3.0 9.0 0.00 0.85 0.33 99 1002.0
20171024064114 44 324 0.0 6.0 0.00 0.85 0.33 99 1002.0
20171024063113 44 334 1.0 8.0 0.00 0.85 0.33 99 1002.0
20171024062114 44 338 5.0 9.0 0.00 0.85 0.33 99 1002.0
20171024061113 44 327 0.0 3.0 0.00 0.85 0.33 99 1002.0
20171024060114 44 327 0.0 3.0 0.00 0.85 0.33 99 1002.0
20171024055114 44 328 0.0 3.0 0.00 0.85 0.33 99 1002.0
20171024054115 44 349 0.0 2.0 0.00 0.85 0.33 99 1002.0
20171024052113 44 346 2.0 6.0 0.00 0.85 0.33 99 1002.0
20171024045114 44 349 2.0 6.0 0.00 0.85 0.33 99 1001.0
20171024044113 44 317 0.0 2.0 0.00 0.85 0.33 99 1001.0
20171024043114 44 316 0.0 2.0 0.00 0.85 0.33 99 1001.0
20171024042113 44 321 0.0 2.0 0.00 0.85 0.33 99 1001.0
20171024041113 44 316 0.0 8.0 0.00 0.85 0.33 99 1001.0
20171024034114 44 358 0.0 9.0 0.00 0.85 0.33 99 1001.0
20171024033114 44 312 2.0 9.0 0.00 0.85 0.33 99 1000.6
20171024032114 44 317 3.0 8.0 0.00 0.85 0.33 99 1000.0
20171024031114 44 340 0.0 6.0 0.00 0.85 0.33 99 1001.0
20171024030114 44 316 3.0 9.0 0.00 0.85 0.33 99 1000.6
20171024025114 44 320 3.0 6.0 0.00 0.85 0.33 99 1000.0
20171024024114 44 324 0.0 8.0 0.00 0.85 0.33 99 1000.0
20171024023113 44 286 5.0 8.0 0.00 0.85 0.33 99 1000.0
20171024022114 44 311 5.0 9.0 0.00 0.85 0.33 99 1000.0
20171024021113 44 322 6.0 10.0 0.00 0.85 0.33 98 1001.0
20171024015113 44 325 5.0 8.0 0.00 0.85 0.33 98 1001.0
20171024014113 44 337 3.0 9.0 0.00 0.85 0.33 98 1001.0
20171024013113 44 320 2.0 9.0 0.00 0.85 0.33 98 1001.0
20171024012114 44 305 4.0 8.0 0.05 0.85 0.33 98 1001.0
20171024010114 44 324 6.0 12.0 0.14 0.85 0.33 98 1001.0
20171024002114 45 50 2.0 8.0 0.19 0.80 0.28 98 1002.0
20171024001113 45 1 2.0 6.0 0.19 0.80 0.28 98 1002.0
20171023235113 45 21 2.0 7.0 0.19 0.71 0.19 98 1002.0
20171023234114 46 356 0.0 2.0 0.14 0.66 0.14 98 1002.0
20171023233113 46 343 2.0 8.0 0.09 0.61 0.09 98 1002.0
20171023232114 46 317 6.0 13.0 0.09 0.61 0.09 98 1002.0
20171023224113 47 331 2.0 6.0 0.00 0.52 0.00 98 1002.0
20171023223113 47 335 4.0 9.0 0.00 0.52 0.00 98 1002.0
20171023222113 47 329 1.0 10.0 0.00 0.52 0.00 98 1002.0
20171023220115 48 308 3.0 8.0 0.00 0.52 0.00 98 1002.0
20171023215114 49 279 0.0 2.0 0.00 0.52 0.00 98 1002.0
20171023214114 49 344 0.0 2.0 0.00 0.52 0.00 98 1002.0
20171023213113 49 327 0.0 3.0 0.00 0.52 0.00 98 1002.0
20171023210114 49 306 0.0 2.0 0.00 0.52 0.00 98 1003.0
20171023205113 49 313 0.0 2.0 0.00 0.52 0.52 98 1003.0
20171023204114 49 317 0.0 0.0 0.00 0.52 0.52 98 1003.0
20171023203113 49 278 0.0 2.0 0.00 0.52 0.52 98 1003.0
20171023202113 49 0 0.0 0.0 0.00 0.52 0.52 98 1003.0
20171023195114 49 323 0.0 0.0 0.00 0.52 0.52 97 1003.0
20171023194114 49 323 0.0 0.0 0.00 0.52 0.52 97 1003.0
20171023193114 49 323 0.0 0.0 0.00 0.52 0.52 97 1003.0
20171023192114 49 322 0.0 0.0 0.00 0.52 0.52 97 1003.0
20171023191113 49 322 0.0 0.0 0.00 0.52 0.52 97 1003.0
20171023190114 49 322 0.0 2.0 0.00 0.52 0.52 97 1003.0
20171023184114 50 269 0.0 0.0 0.00 0.52 0.52 97 1003.0
20171023183113 50 269 0.0 0.0 0.05 0.52 0.52 97 1003.0
20171023182113 50 273 0.0 0.0 0.05 0.52 0.52 97 1003.0
20171023181113 50 273 0.0 0.0 0.05 0.52 0.52 97 1002.0
20171023180114 50 94 1.0 6.0 0.05 0.52 0.52 97 1002.4
20171023175113 50 109 3.0 6.0 0.05 0.52 0.52 97 1003.0
20171023172113 50 145 0.0 3.0 0.00 0.47 0.47 97 1003.0
20171023171114 50 142 2.0 7.0 0.00 0.47 0.47 97 1003.0
20171023170113 50 258 0.0 0.0 0.05 0.47 0.47 97 1003.0
20171023165113 50 258 0.0 0.0 0.05 0.47 0.47 97 1003.0
20171023163113 50 241 0.0 0.0 0.09 0.47 0.47 97 1003.0
20171023162113 51 263 0.0 0.0 0.14 0.47 0.47 97 1003.0
20171023161112 51 263 0.0 3.0 0.14 0.47 0.47 97 1003.0
20171023160113 51 133 2.0 6.0 0.14 0.43 0.43 97 1003.0
20171023155113 51 123 1.0 5.0 0.24 0.43 0.43 97 1003.0
20171023153113 51 134 3.0 6.0 0.28 0.38 0.38 97 1003.3
20171023152113 51 103 0.0 0.0 0.24 0.33 0.33 97 1004.0
20171023145113 51 270 0.0 0.0 0.19 0.19 0.19 97 1004.0
20171023144113 51 248 0.0 0.0 0.14 0.14 0.14 97 1004.0
20171023143113 51 248 0.0 0.0 0.09 0.09 0.09 96 1004.0
20171023140114 51 248 0.0 0.0 0.05 0.05 0.05 96 1004.0
20171023135112 51 153 1.0 3.0 0.00 0.00 0.00 96 1004.0
20171023133113 51 164 3.0 6.0 0.00 0.00 0.00 96 1004.0
20171023130113 51 128 4.0 8.0 0.00 0.00 0.00 96 1004.0
20171023125113 51 143 2.0 10.0 0.00 0.00 0.00 96 1004.0
20171023124114 51 128 5.0 8.0 0.00 0.00 0.00 96 1004.0
20171023123113 51 130 5.0 8.0 0.00 0.00 0.00 96 1004.0
20171023121113 51 124 3.0 8.0 0.00 0.00 0.00 96 1004.0
20171023114114 51 141 5.0 9.0 0.00 0.00 0.00 96 1005.0
20171023113114 51 148 2.0 8.0 0.00 0.00 0.00 96 1005.0